Location: Härggis
(46.9540°N, 8.4897°E)
Time: 22:01:01
(UTC+00:00)

SL-14 R/B - Pass Details

Date: 26 September 2022
Orbit: 515 x 551 km, 82.4° (Epoch: 08 December)

Event Time Altitude Azimuth Distance (km) Brightness Sun altitude
Rises 19:01:57 0° 347° (NNW) 2,682 7.3 -18.6°
Reaches altitude 10° 19:04:06 10° 344° (NNW) 1,793 6.4 -19.0°
Maximum altitude 19:08:00 63° 264° (W) 606 3.7 -19.6°
Enters shadow 19:11:04 16° 186° (S) 1,463 5.3 -20.1°
